Theta_e
316 320 322 320 317 315 315 314 313 312 312 313 314 315 316 317 318 320 325 326 326 332 333 341 341 344 343 345 345 348 354 352 347 349 349 346 347 347 347 347 348 350 351 353 354
315 315 319 322 321 318 316 315 314 313 313 313 314 314 316 317 319 323 326 324 326 329 333 336 340 341 343 343 344 347 347 347 345 345 347 347 347 347 347 348 350 350 352 353 353
316 315 315 318 322 321 318 316 315 314 313 313 313 314 316 317 323 328 327 325 326 330 332 332 335 337 341 340 341 343 346 343 343 343 345 346 348 346 348 351 350 350 352 353 353
317 316 316 316 319 322 321 317 316 315 314 313 313 314 315 317 331 329 326 326 326 329 331 332 335 339 340 340 339 344 341 339 341 341 345 348 347 348 346 347 349 349 353 352 352
317 317 316 316 317 321 322 320 316 316 315 314 313 314 315 323 326 326 326 326 326 328 330 333 337 339 341 338 339 341 339 340 340 343 346 347 347 348 348 347 347 349 350 351 350
317 317 317 316 316 320 322 322 317 316 316 315 314 314 317 325 325 329 330 326 328 327 329 333 336 338 338 338 339 337 338 340 340 342 343 345 346 347 348 348 348 350 350 349 348
317 317 316 316 316 318 321 322 318 316 316 316 314 313 322 325 324 330 330 329 328 327 330 332 333 335 338 338 336 337 340 340 338 339 342 344 350 348 348 348 349 350 349 348 348
317 317 316 316 316 318 321 321 319 316 316 316 315 314 322 322 321 324 328 328 327 328 328 330 334 335 337 337 337 339 341 339 337 339 341 344 347 348 347 348 349 349 348 347 347
318 317 316 316 316 317 321 321 319 317 317 317 319 322 322 318 319 325 327 328 328 328 327 329 331 334 336 338 339 338 343 338 337 336 336 343 344 344 346 348 348 349 349 347 346
319 318 317 319 316 317 320 320 317 317 317 317 322 324 322 320 323 325 326 328 328 328 328 328 330 335 336 338 346 342 338 336 337 336 338 342 343 343 347 348 348 349 349 347 346
320 319 317 321 317 318 320 318 321 324 322 324 323 325 321 322 323 326 327 329 329 328 329 329 333 335 337 337 336 336 337 336 336 336 338 341 342 344 345 350 349 349 349 348 347
321 319 317 322 317 318 321 325 324 326 327 322 322 322 324 323 324 326 328 329 330 331 330 333 332 335 335 334 336 336 336 335 335 335 337 341 341 346 347 349 349 348 348 349 348
322 320 318 321 318 318 321 326 324 325 330 324 323 324 322 322 325 327 328 329 330 331 332 332 333 334 333 335 336 337 335 334 334 336 340 344 344 346 348 347 349 349 348 348 348
322 320 319 321 319 320 322 325 324 325 332 328 328 327 325 322 326 326 327 329 330 331 331 332 331 332 333 336 337 336 334 333 334 336 340 342 350 345 347 349 348 348 348 348 347
322 319 321 321 325 323 325 324 324 326 337 328 329 327 327 327 328 327 327 328 331 330 331 332 331 331 334 336 335 335 334 334 334 336 337 341 346 344 344 346 347 346 346 346 346
322 319 321 321 322 325 325 324 325 333 339 330 329 328 329 328 328 327 327 328 327 329 330 332 331 334 335 335 334 334 333 334 335 336 342 336 343 345 345 347 346 344 345 345 347
322 320 321 322 328 325 325 325 333 338 333 331 330 329 330 330 329 328 329 328 329 331 332 331 333 333 334 334 334 334 334 336 337 336 342 336 341 345 345 344 345 344 344 345 346
323 321 323 325 326 325 325 330 338 337 335 332 331 330 332 331 329 327 328 329 329 332 334 335 335 334 334 334 336 336 334 336 339 338 338 335 342 347 345 343 344 345 343 345 345
323 321 325 327 324 326 328 335 338 336 333 332 331 332 333 332 332 331 331 331 332 334 336 336 336 334 333 334 333 335 335 335 335 334 335 338 341 344 345 347 346 346 346 345 345
326 326 327 326 324 327 332 333 335 333 333 332 332 333 333 333 333 334 335 334 334 334 334 336 338 333 333 333 333 333 335 334 334 339 338 337 338 345 347 348 347 347 347 348 348
326 331 329 326 326 328 333 335 333 331 332 333 334 333 334 333 334 334 334 335 334 334 333 334 335 336 334 334 335 334 333 334 334 335 336 336 345 347 348 346 346 346 346 346 348
331 336 327 327 330 329 332 332 327 333 332 333 334 334 335 334 334 335 335 337 334 335 335 335 336 337 337 335 335 334 335 336 337 338 339 339 346 346 346 345 344 345 344 344 346
335 333 327 327 334 333 332 332 330 334 334 334 334 335 335 336 336 335 337 334 334 335 337 337 336 337 338 337 336 335 335 335 336 336 337 337 349 346 345 345 343 343 343 343 342
333 335 330 328 330 333 332 333 333 331 333 334 335 335 336 337 337 338 338 334 333 334 326 334 336 337 340 341 339 339 337 337 337 337 337 338 346 347 346 346 344 343 341 341 341
332 336 332 333 332 331 333 335 334 334 333 333 335 335 336 337 337 337 337 335 333 329 332 334 337 337 337 337 337 337 337 336 337 336 337 336 341 348 345 343 340 340 341 338 337
330 331 332 332 333 332 327 334 334 334 335 334 336 334 335 337 337 337 336 335 336 335 334 333 334 334 335 334 335 335 335 334 336 335 336 336 337 342 339 339 338 337 339 336 334
320 325 328 332 334 332 332 333 333 333 332 333 334 334 335 333 331 331 331 331 332 332 333 333 332 332 333 332 332 334 335 334 335 337 339 339 343 340 339 337 336 334 336 335 333
Wind_Speed
7 7 7 7 8 7 7 7 7 8 9 10 10 10 10 10 9 8 7 7 7 6 4 3 4 4 5 1 3 8 5 7 10 6 6 7 4 10 5 6 4 3 8 12 14
8 8 7 8 8 8 8 7 7 7 8 9 9 9 9 8 9 13 13 12 8 7 5 5 5 3 10 3 2 10 8 8 7 7 5 4 4 4 6 7 4 6 6 11 14
10 8 8 8 8 8 8 8 8 7 8 8 8 8 7 6 8 11 15 12 9 8 6 5 5 7 6 1 3 3 7 7 8 10 8 7 2 3 4 12 4 8 6 14 13
11 9 8 8 8 9 9 9 8 8 7 7 7 8 7 7 5 4 10 10 10 9 8 7 7 13 5 4 3 4 4 8 9 8 5 4 3 4 4 1 8 2 16 12 13
12 10 8 7 8 8 9 9 8 8 7 7 7 7 7 9 8 1 7 8 10 9 10 9 10 5 5 2 7 4 9 9 6 5 4 6 6 5 6 3 3 5 8 12 12
13 10 9 7 8 8 8 8 9 8 7 6 7 8 7 15 4 2 5 6 10 11 10 8 6 5 9 4 8 9 10 7 3 4 4 6 7 4 3 9 7 8 10 12 11
14 10 8 7 7 8 8 8 9 9 7 6 6 8 9 11 5 4 5 7 10 10 9 8 6 11 7 8 3 11 10 6 3 4 4 12 12 7 4 6 10 12 11 12 11
14 11 7 6 7 8 8 8 9 9 7 5 5 5 12 17 8 6 7 8 10 8 6 4 6 11 10 7 15 11 9 2 6 3 3 6 7 5 7 11 13 12 13 12 12
14 11 7 6 7 8 8 8 10 9 7 5 3 5 12 11 15 11 10 11 10 9 7 4 8 16 11 12 12 10 11 7 3 1 3 3 10 5 7 12 14 15 13 14 15
16 12 7 5 8 10 9 8 9 7 6 5 6 7 12 14 17 15 12 9 13 11 10 11 14 14 14 13 1 9 7 5 6 7 10 8 6 5 11 10 12 18 17 17 18
17 12 6 4 10 14 14 13 5 5 14 11 10 5 8 10 17 16 14 14 12 13 14 15 12 14 14 3 3 6 6 9 5 3 7 8 6 7 2 10 11 17 23 19 16
19 11 4 5 12 17 20 9 4 1 10 19 7 9 6 12 16 19 17 16 15 14 15 9 12 16 5 3 8 8 10 5 3 8 5 4 7 8 6 7 11 11 16 21 20
18 8 3 6 12 17 18 9 3 2 9 14 13 12 12 14 19 21 21 19 13 14 12 14 7 2 3 11 11 14 11 8 9 10 4 28 12 9 10 7 7 8 8 12 23
16 7 4 8 8 11 14 15 8 5 6 13 13 11 10 15 14 22 22 17 9 13 11 12 13 7 11 12 12 12 5 6 11 12 7 15 4 11 14 9 5 9 9 8 16
13 4 6 17 10 12 5 10 7 4 6 17 16 13 16 21 19 14 21 17 13 11 7 9 12 12 13 15 7 14 2 10 14 12 1 4 8 15 13 11 10 7 9 11 14
10 2 8 12 7 10 5 8 4 7 4 10 12 14 16 16 13 21 20 16 12 11 12 16 5 7 13 9 6 11 11 14 16 15 9 1 15 5 11 10 8 8 9 9 15
6 3 9 13 4 7 7 11 7 10 16 12 17 19 19 12 11 16 17 17 12 12 14 16 15 15 11 12 13 13 14 12 8 5 8 3 9 11 11 8 9 9 7 9 16
2 4 8 9 5 7 11 9 10 6 12 15 15 18 16 13 13 15 17 16 18 17 13 13 17 17 13 11 14 9 14 11 3 1 5 4 12 9 12 14 14 15 9 9 9
1 5 7 4 8 11 13 11 7 7 7 10 18 18 11 15 10 15 16 16 14 13 8 5 6 11 9 6 9 7 11 11 8 8 4 5 20 16 12 12 12 13 13 13 7
4 5 6 7 9 9 9 16 2 6 6 9 14 16 13 16 12 12 13 8 8 6 11 4 6 13 11 8 8 13 11 7 7 7 2 5 10 10 11 12 11 10 13 11 9
6 8 7 8 9 12 10 6 2 7 9 11 14 16 13 15 12 14 14 9 1 7 9 11 9 5 10 11 12 9 11 9 9 9 7 5 4 10 11 11 12 12 13 12 12
7 4 10 11 10 16 12 2 2 7 10 7 10 12 13 15 11 9 7 6 2 7 7 13 8 10 15 7 3 8 15 13 7 7 4 7 6 10 10 11 13 13 14 14 13
7 7 10 11 7 9 13 7 7 5 8 9 9 8 5 8 8 5 7 6 2 6 6 3 9 12 14 14 11 9 12 11 14 12 11 9 6 10 11 12 12 13 13 13 14
6 5 8 14 18 14 11 12 10 4 1 5 0 5 8 5 5 6 8 6 4 3 4 4 14 16 7 6 12 11 6 8 11 12 13 5 16 13 8 8 8 10 10 11 12
6 4 5 8 12 11 3 3 12 7 5 8 6 11 12 8 7 7 5 10 7 6 5 6 14 16 18 15 10 10 17 13 10 11 13 17 8 12 6 5 7 7 7 8 11
9 7 9 12 2 6 5 9 12 7 7 12 10 4 3 2 6 1 1 2 7 8 7 12 14 14 18 19 17 15 15 9 12 14 13 11 12 11 7 5 5 5 3 6 9
11 6 8 4 8 9 9 8 9 4 1 8 5 4 6 9 6 6 6 9 7 6 11 10 11 10 14 15 13 11 10 12 6 8 6 9 11 6 5 5 6 7 1 3 8
Wind_Direction
308 288 270 260 253 251 250 244 235 235 236 237 238 239 242 248 255 264 256 247 230 234 229 241 263 266 266 233 332 271 299 44 13 44 315 80 244 194 273 248 196 97 39 110 141
317 293 276 262 254 248 245 242 236 234 234 234 235 237 240 251 260 259 242 243 225 218 215 234 257 259 237 174 196 315 26 33 359 340 317 41 352 306 195 202 173 172 120 133 147
328 303 282 264 254 247 240 236 232 229 230 231 229 228 229 243 275 227 223 233 218 203 203 268 268 273 288 265 19 337 23 336 331 358 322 348 249 258 223 225 340 188 156 148 160
328 314 291 269 253 242 236 230 227 224 223 223 222 217 211 207 230 165 204 214 216 205 235 253 249 243 287 7 31 275 344 344 337 331 303 271 312 250 247 306 166 198 166 160 174
327 313 296 272 251 237 231 224 220 219 217 216 212 207 194 228 250 223 195 207 210 208 228 243 263 286 254 8 325 279 339 323 346 344 294 289 261 270 265 240 201 157 160 176 180
334 314 299 268 246 232 222 216 211 211 212 210 206 200 197 238 190 189 184 209 196 205 227 238 285 330 290 304 288 330 317 290 351 338 318 299 273 225 162 176 188 176 176 176 181
337 323 304 265 238 226 216 207 203 201 203 201 202 199 234 222 192 192 182 194 197 203 228 233 265 267 343 280 304 292 272 218 196 359 293 322 235 211 206 197 179 189 182 168 180
339 330 308 267 230 216 207 200 194 190 193 194 191 187 241 217 217 204 191 189 187 204 231 235 258 267 273 304 264 252 292 261 68 308 90 316 35 100 162 203 184 195 169 175 178
341 331 307 261 220 201 192 187 181 182 182 178 148 194 228 224 216 196 193 192 190 199 217 237 258 259 266 233 246 221 212 33 296 89 316 239 310 219 199 210 198 165 173 179 175
342 333 309 254 201 184 173 165 168 176 178 181 235 226 229 211 191 191 191 196 191 199 217 234 235 242 219 237 220 245 331 315 319 24 334 279 330 27 171 213 223 166 178 181 178
340 331 304 223 184 175 158 137 150 212 209 206 186 257 135 154 175 187 186 189 202 202 221 195 221 227 233 47 18 288 263 281 359 350 328 5 23 31 192 177 215 183 170 181 194
340 329 282 201 184 179 173 196 14 17 211 222 227 234 200 184 186 190 184 199 203 213 219 185 234 250 45 283 252 263 254 274 298 330 277 353 65 55 43 151 189 226 175 177 182
340 328 246 193 185 190 188 197 220 322 255 173 201 205 185 191 195 184 191 208 195 227 201 247 195 91 239 213 231 227 273 21 315 326 287 60 335 101 94 108 169 205 225 182 171
339 325 196 163 170 194 223 225 224 322 257 146 189 205 183 192 208 189 197 201 224 236 228 232 253 195 219 235 243 265 105 289 289 294 266 128 236 100 106 109 147 183 203 223 187
336 314 197 163 149 176 144 188 202 263 239 154 152 147 175 206 150 197 192 211 240 207 264 223 214 221 225 236 216 282 349 281 287 281 317 90 108 93 56 65 115 175 185 203 174
328 271 169 188 191 168 190 184 179 232 178 154 147 179 178 216 193 156 187 210 226 259 202 269 190 223 224 237 244 274 284 267 257 244 351 320 114 304 55 44 63 122 157 178 169
320 226 190 153 118 188 176 175 224 249 139 153 171 170 193 179 159 172 183 199 214 207 213 211 232 225 223 241 229 231 250 253 218 192 214 131 37 58 71 54 59 82 140 172 169
317 189 169 188 198 174 172 220 252 106 199 157 171 176 194 162 155 174 184 199 227 246 170 204 183 200 195 231 276 215 255 273 246 134 244 184 125 89 80 59 73 72 76 160 185
104 180 194 266 197 170 209 222 248 187 122 164 165 184 182 185 157 179 184 202 189 230 284 196 116 151 167 241 244 162 232 325 289 191 98 215 104 95 81 82 72 71 57 45 24
125 189 176 185 174 175 237 256 74 360 304 192 187 191 173 178 192 200 189 196 180 204 264 25 174 181 170 224 227 279 333 248 256 185 286 351 172 123 111 90 75 63 69 55 44
163 206 178 167 167 217 235 212 176 172 236 236 207 201 180 177 207 203 163 127 223 146 238 258 266 172 163 217 232 190 228 240 309 333 330 287 66 103 110 91 86 71 60 51 42
272 236 164 171 208 219 234 173 32 245 186 259 284 197 226 171 200 191 166 82 146 282 209 224 291 228 211 189 319 315 303 310 271 245 354 323 109 113 98 83 82 73 62 51 42
255 111 177 188 238 203 237 229 238 247 194 203 223 284 180 172 204 220 116 85 178 228 352 307 241 253 244 202 188 240 236 234 279 306 297 302 123 130 118 96 77 67 59 53 42
272 182 160 213 261 286 217 214 187 192 186 271 190 233 198 181 236 173 146 165 163 72 15 286 270 273 297 244 269 289 226 262 285 294 309 331 126 152 88 76 69 70 51 47 40
240 344 15 193 228 240 298 301 225 167 228 225 202 223 208 200 173 195 157 140 198 142 245 260 274 285 293 296 274 260 287 292 280 280 289 302 47 87 87 57 62 52 46 41 31
334 339 335 290 256 255 167 229 233 156 276 187 255 178 219 263 16 95 244 199 288 154 252 256 266 278 279 284 283 275 280 265 286 280 289 293 286 82 103 81 49 33 37 28 18
352 315 287 238 241 217 231 221 227 56 232 7 38 230 177 69 2 348 310 304 276 261 276 265 279 263 261 275 282 246 287 286 215 323 329 295 50 36 48 26 359 334 287 18 355